Regional Weather Roundup
Issued by NWS

Home | Current Version | Previous Version | Graphics & Text | Print | Product List | Glossary On
Versions: 1 2 3 4 5 6 7 8 9 10 11 12 13 14 15 16 17 18 19 20 21 22 23 24 25 26 27 28 29 30 31 32 33 34 35 36 37 38 39 40 41 42 43 44 45 46 47 48 49 50
000
ASUS43 KMPX 191001
RWRMN
WEATHER ROUNDUP FOR MINNESOTA
NATIONAL WEATHER SERVICE TWIN CITIES/CHANHASSEN MN
500 AM CDT SAT AUG 19 2017


NOTE: "FAIR" INDICATES FEW OR NO CLOUDS BELOW 12,000 FEET WITH NO
SIGNIFICANT WEATHER AND/OR OBSTRUCTIONS TO VISIBILITY. N/A MEANS
CURRENT SKY AND/OR WEATHER CONDITIONS ARE NOT AVAILABLE.

MNZ060>063-068>070-191100-
   Twin Cities Metro

CITY           SKY/WX    TMP DP  RH WIND       PRES   REMARKS
TWIN CITIES    PTCLDY    61  58  90 S3        29.91F
ST PAUL        PTCLDY    57  57 100 CALM      29.92S FOG
CRYSTAL        CLEAR     54  53  97 CALM      29.90S FOG
BLAINE         FOG       57  57 100 CALM      29.91S VSB 3/4
LAKEVILLE      FOG       54  54 100 CALM      29.92S VSB 1/2
EDEN PRAIRIE     N/A     58  56  93 CALM      29.90F VSB 1/4
SOUTH ST PAUL  FOG       57  56  99 CALM      29.92S VSB 1/2
LAKE ELMO      FOG       54  54 100 CALM      29.92F VSB 3/4
$$
MNZ001>005-007-008-013>017-022>024-027-028-191100-
   Northwest Minnesota

CITY           SKY/WX    TMP DP  RH WIND       PRES   REMARKS
BEMIDJI        CLEAR     57  56  96 SW5       29.87S
HALLOCK        CLEAR     52  52 100 SE7       29.81S
ROSEAU         CLEAR     54  48  82 S3        29.83R
WARROAD        CLEAR     55  52  88 CALM      29.83S
CROOKSTON      CLEAR     54  52  94 SE7       29.85F
FOSSTON        CLEAR     54  52  94 S7        29.88S FOG
DETROIT LAKES  CLEAR     61  59  94 CALM      29.91S
MOORHEAD       CLEAR     55  55 100 SE3       29.88S FOG
PARK RAPIDS    CLEAR     54  52  93 CALM      29.89S
MAHNOMEN       FAIR      55  55  97 S5        29.88S
$$
MNZ006-009>011-018-025>026-191100-
   North Central Minnesota

CITY           SKY/WX    TMP DP  RH WIND       PRES   REMARKS
BAUDETTE       CLEAR     51  51 100 S3        29.83S
FLAG ISLAND    CLEAR     66  54  63 CALM      29.80S HAZE
INTL FALLS     FOG       51  51 100 CALM      29.84R VSB 1
WASKISH        CLEAR     55  54  94 CALM      29.85S
BIG FORK       FOG       54  52  94 CALM      29.86F VSB 3/4
LONGVILLE        N/A     55  54  94 SW3       29.88S FOG
GRAND RAPIDS   CLEAR     58  56  93 CALM      29.89S
CRANE LAKE     CLEAR     46  46 100 CALM      29.86R FOG
ORR            CLEAR     54  52  94 CALM      29.83S FOG
COOK             N/A     54  54 100 CALM      29.87R FOG
WALKER         FAIR      58  56  96 W3        29.88S
$$
MNZ012-019>021-037-191100-
   Northeast Minnesota

CITY           SKY/WX    TMP DP  RH WIND       PRES   REMARKS
DULUTH         CLEAR     58  57  97 W7        29.87S
ELY            CLEAR     55  54  94 CALM      29.85S
HIBBING        FOG       47  47 100 SE3       29.86F VSB 1/2
EVELETH          N/A     55  53  92 W3        29.88R FOG
DULUTH HARBOR  CLEAR     59  57  94 SW10      29.86S
TWO HARBORS    CLEAR     63  57  82 NW6       29.83S
GRAND MARAIS     N/A     65  58  78 CALM      29.79S
G MARAIS ARPRT CLEAR     55  52  88 CALM      29.84F
$$
MNZ029>031-032-039>041-046>048-054>057-064-191100-
   West Central Minnesota

CITY           SKY/WX    TMP DP  RH WIND       PRES   REMARKS
FERGUS FALLS   CLEAR     59  59 100 CALM      29.90S
WHEATON        CLEAR     55  52  88 CALM      29.92S
MORRIS         CLEAR     55  55 100 CALM      29.90S FOG
ALEXANDRIA     CLEAR     56  56 100 CALM      29.92S
ELBOW LAKE     FAIR      56  56 100 CALM      29.91S FOG
WADENA         CLEAR     55  55 100 CALM      29.90S
GLENWOOD       FOG       55  55 100 CALM      29.92S VSB 1/4
APPLETON       FOG       54  52  94 CALM      29.91S VSB 1/4
BENSON         FOG       50  48  93 CALM      29.93S VSB 1/4
ORTONVILLE     CLEAR     55  54  94 MISG      29.91S
MADISON        CLEAR     55  55 100 CALM      29.92S
WILLMAR        FOG       55  55 100 CALM      29.93S VSB 1/2
$$
MNZ033>034-036-042>043-049>051-058-059-191100-
   Central Minnesota

CITY           SKY/WX    TMP DP  RH WIND       PRES   REMARKS
ST CLOUD       CLEAR     52  52 100 CALM      29.91S FOG
SAUK CENTRE    FOG       53  53 100 CALM      29.92S VSB 1/4
PAYNESVILLE    FOG       52  52 100 W3        29.92F VSB 1/4
AITKIN         CLEAR     57  55  94 SW3       29.88S FOG
PINE RIVER     CLEAR     48  48 100 CALM      29.93S
BRAINERD       CLEAR     55  54  96 S5        29.90S FOG
STAPLES        CLEAR     55  55 100 CALM      29.90S
LONG PRAIRIE   FOG       52  52 100 CALM      29.92S VSB 1/4
LITTLE FALLS   FOG       52  52 100 CALM      29.91S VSB 1/4
LITCHFIELD     CLEAR     57  57 100 CALM      29.92F FOG
BUFFALO          N/A     55  53  94 CALM      29.93S FOG
MAPLE LAKE     FOG       55  55  99 CALM      29.92F VSB 1/2
HUTCHINSON     FOG       55  55 100 CALM      29.93S VSB<1/4
$$
MNZ037-044-045-052-053-191100-
   East Central Minnesota

CITY           SKY/WX    TMP DP  RH WIND       PRES   REMARKS
PRINCETON      FOG       52  52 100 CALM      29.91S VSB 1/4
MORA           CLEAR     50  50 100 CALM      29.92S
CAMBRIDGE      FOG       57  55  94 CALM      29.91F VSB 1
RUSH CITY      FOG       53  52  97 CALM      29.91S VSB 1/4
MOOSE LAKE     FOG       48  46  93 CALM      29.87S VSB 3/4
HINCKLEY       FOG       52  52 100 S3        29.90S VSB 3/4
CLOQUET        CLEAR     59  55  88 W8        29.88S
MCGREGOR         N/A     54  54 100 CALM      29.89S VSB 3/4
$$
MNZ071>073-080-081-089-090-097-098-191100-
   Southwest Minnesota

CITY           SKY/WX    TMP DP  RH WIND       PRES   REMARKS
MONTEVIDEO     PTCLDY    54  54 100 CALM      29.92R FOG
GRANITE FALLS  FOG       56  56 100 CALM      29.94R VSB 1/2
CANBY          CLEAR     55  54  95 CALM      29.93S
MARSHALL       CLEAR     54  54 100 W3        29.93S FOG
REDWOOD FALLS  FOG       57  56  96 SW3       29.92F VSB 1/4
OLIVIA         MOCLDY    54  54 100 CALM      29.91F FOG
PIPESTONE      CLEAR     57  55  94 CALM      29.94S
WINDOM         DRZL/FOG  55  54  94 CALM      29.95S VSB<1/4
WORTHINGTON    FOG       58  58 100 NE3       29.95F VSB 1/4
JACKSON        FOG       52  52 100 CALM      29.92R VSB 1/4
TRACY          FOG       60  60 100 CALM      29.94S VSB<1/4
SLAYTON        FOG       58  55  88 CALM      29.95S VSB 1/4
$$
MNZ065>067-074>077-082>085-091>093-191100-
   South Central Minnesota

CITY           SKY/WX    TMP DP  RH WIND       PRES   REMARKS
MANKATO        FOG       56  55  97 S6        29.93S VSB 1/4
NEW ULM        FOG       57  55  94 CALM      29.92R VSB 1/4
ST JAMES       FOG       54  54 100 S3        29.95R VSB 1/2
FAIRMONT       FOG       54  53  97 CALM      29.95R VSB 1/4
GLENCOE        CLEAR     56  56 100 CALM      29.92R
FARIBAULT      FOG       54  54 100 CALM      29.93S VSB 1/4
OWATONNA       CLEAR     54  54 100 CALM      29.93F FOG
WASECA         FOG       52  50  93 S5        29.94S VSB 1/2
ALBERT LEA     CLEAR     57  57 100 CALM      29.94S FOG
$$
MNZ078>079-086>088-094>096-191100-
   Southeast Minnesota

CITY           SKY/WX    TMP DP  RH WIND       PRES   REMARKS
ROCHESTER      CLEAR     52  52 100 SW6       29.95S
RED WING       FOG       55  54  94 CALM      29.91S VSB<1/4
STANTON        CLEAR     54  53  96 S3        29.92S FOG
DODGE CENTER   CLEAR     52  52 100 CALM      29.94S
WINONA         PTCLDY    54  54 100 CALM      29.93S FOG
AUSTIN         CLEAR     55  54  94 CALM      29.94S FOG
PRESTON        CLEAR     54  52  94 CALM      29.94S
$$
ABBREVIATIONS USED IN REMARKS
   TC - TEMPERATURES IN CELSIUS
  WCI - WIND CHILL INDEX
   HX - HEAT INDEX
  VSB - VISIBILITY
$$




USA.gov is the U.S. government's official web portal to all federal, state and local government web resources and services.